FW4803 Weather Reports


time (UTC)temp
C
wind
direction
speed
KPH
gust
KPH
rain 1hr
cm
rain 24hr
cm
rain mn
cm
humidity
%
barometer
mb
20260507194513 17 63 4.8 6.4 0.00 0.00 0.00 45 1018.7
20260507194013 17 59 4.8 6.4 0.00 0.00 0.00 45 1018.8
20260507193012 17 82 6.4 8.0 0.00 0.00 0.00 44 1018.9
20260507192513 17 89 6.4 8.0 0.00 0.00 0.00 44 1019.0
20260507192012 17 80 6.4 8.0 0.00 0.00 0.00 44 1018.8
20260507191514 17 71 6.4 8.0 0.00 0.00 0.00 44 1018.8
20260507191013 17 89 6.4 6.4 0.00 0.00 0.00 44 1018.7
20260507190512 18 90 4.8 6.4 0.00 0.00 0.00 44 1018.7
20260507190014 18 96 4.8 6.4 0.00 0.00 0.00 44 1018.9
20260507185512 18 113 4.8 6.4 0.00 0.00 0.00 43 1018.9
20260507185013 18 107 4.8 6.4 0.00 0.00 0.00 44 1019.0
20260507184013 18 143 3.2 4.8 0.00 0.00 0.00 45 1019.0
20260507183513 18 155 1.6 3.2 0.00 0.00 0.00 45 1018.8
20260507183012 18 118 1.6 6.4 0.00 0.00 0.00 46 1018.8
20260507182513 18 108 4.8 9.7 0.00 0.00 0.00 45 1018.8
20260507182013 18 98 8.0 9.7 0.00 0.00 0.00 45 1018.7
20260507181513 18 98 6.4 8.0 0.00 0.00 0.00 46 1018.6
20260507181012 18 111 6.4 6.4 0.00 0.00 0.00 47 1018.5
20260507180513 18 129 6.4 6.4 0.00 0.00 0.00 47 1018.7
20260507180013 18 123 6.4 8.0 0.00 0.00 0.00 48 1018.6
20260507175513 18 92 8.0 8.0 0.00 0.00 0.00 48 1018.6
20260507174513 18 78 8.0 8.0 0.00 0.00 0.00 48 1018.7
20260507174013 18 42 8.0 8.0 0.00 0.00 0.00 48 1018.6
20260507173013 18 99 6.4 9.7 0.00 0.00 0.00 47 1018.9
20260507172512 18 107 8.0 11.3 0.00 0.00 0.00 46 1018.7
20260507172013 19 101 9.7 11.3 0.00 0.00 0.00 46 1018.7
20260507171013 19 171 8.0 11.3 0.00 0.00 0.00 44 1018.5
20260507170512 19 95 9.7 12.9 0.00 0.00 0.00 44 1018.5
20260507170016 19 98 8.0 12.9 0.00 0.00 0.00 43 1018.4
20260507165513 20 111 9.7 12.9 0.00 0.00 0.00 43 1018.4
20260507165012 20 110 11.3 12.9 0.00 0.00 0.00 43 1018.2
20260507164512 20 97 11.3 16.1 0.00 0.00 0.00 43 1018.0
20260507164013 20 68 12.9 16.1 0.00 0.00 0.00 42 1018.2
20260507163512 20 41 11.3 17.7 0.00 0.00 0.00 42 1018.2
20260507163013 21 97 9.7 17.7 0.00 0.00 0.00 39 1018.3
20260507162512 21 132 8.0 12.9 0.00 0.00 0.00 36 1018.3
20260507162012 21 178 4.8 8.0 0.00 0.00 0.00 27 1018.4
20260507161513 21 205 4.8 8.0 0.00 0.00 0.00 24 1018.3
20260507161012 21 259 4.8 4.8 0.00 0.00 0.00 25 1018.4
20260507160513 21 250 4.8 6.4 0.00 0.00 0.00 25 1018.5
20260507155512 21 182 6.4 8.0 0.00 0.00 0.00 23 1018.3
20260507155013 21 210 8.0 12.9 0.00 0.00 0.00 23 1018.4
20260507154512 22 215 8.0 12.9 0.00 0.00 0.00 23 1018.4
20260507154012 22 204 8.0 11.3 0.00 0.00 0.00 23 1018.6
20260507153512 22 257 8.0 11.3 0.00 0.00 0.00 24 1018.5
20260507152013 22 200 9.7 14.5 0.00 0.00 0.00 23 1018.7
20260507151512 22 196 12.9 17.7 0.00 0.00 0.00 24 1018.7
20260507151012 22 221 12.9 17.7 0.00 0.00 0.00 22 1018.7
20260507150512 22 254 9.7 12.9 0.00 0.00 0.00 23 1018.8
20260507150012 22 255 8.0 12.9 0.00 0.00 0.00 23 1018.7
20260507145013 22 182 9.7 14.5 0.00 0.00 0.00 23 1018.5
20260507144512 22 227 9.7 14.5 0.00 0.00 0.00 23 1018.6
20260507144016 22 268 8.0 9.7 0.00 0.00 0.00 22 1018.7
20260507143012 22 237 9.7 16.1 0.00 0.00 0.00 23 1018.6
20260507142513 23 257 11.3 16.1 0.00 0.00 0.00 22 1018.6
20260507142012 23 265 12.9 17.7 0.00 0.00 0.00 22 1018.5
20260507141012 23 217 12.9 17.7 0.00 0.00 0.00 22 1018.3
20260507140513 23 222 9.7 11.3 0.00 0.00 0.00 22 1018.2
20260507140016 23 192 9.7 12.9 0.00 0.00 0.00 22 1018.2
20260507134512 24 221 9.7 14.5 0.00 0.00 0.00 17 1017.9
20260507134012 23 235 9.7 12.9 0.00 0.00 0.00 17 1017.9
20260507133512 23 154 11.3 12.9 0.00 0.00 0.00 22 1017.8
20260507133012 23 156 11.3 17.7 0.00 0.00 0.00 22 1017.9
20260507132513 23 165 11.3 17.7 0.00 0.00 0.00 23 1017.8
20260507132012 23 173 11.3 16.1 0.00 0.00 0.00 23 1017.9
20260507131512 23 186 11.3 14.5 0.00 0.00 0.00 23 1017.9
20260507131013 23 164 11.3 14.5 0.00 0.00 0.00 23 1017.9
20260507130512 23 152 9.7 14.5 0.00 0.00 0.00 26 1018.0
20260507130013 22 241 8.0 11.3 0.00 0.00 0.00 32 1018.1
20260507125012 22 201 9.7 12.9 0.00 0.00 0.00 32 1018.3
20260507124512 23 179 9.7 12.9 0.00 0.00 0.00 31 1018.3
20260507123516 23 202 12.9 16.1 0.00 0.00 0.00 28 1018.3
20260507122512 24 202 11.3 16.1 0.00 0.00 0.00 29 1018.5
20260507121512 24 204 12.9 17.7 0.00 0.00 0.00 28 1018.5
20260507121014 24 209 12.9 17.7 0.00 0.00 0.00 22 1018.4
20260507120512 24 238 12.9 17.7 0.00 0.00 0.00 24 1018.5
20260507120012 24 233 12.9 17.7 0.00 0.00 0.00 22 1018.4
20260507115014 23 175 12.9 19.3 0.00 0.00 0.00 22 1018.5
20260507114012 23 275 12.9 17.7 0.00 0.00 0.00 32 1018.5
20260507113512 23 272 12.9 17.7 0.00 0.00 0.00 31 1018.4
20260507113012 23 230 11.3 16.1 0.00 0.00 0.00 32 1018.3
20260507112512 23 279 12.9 16.1 0.00 0.00 0.00 38 1018.5
20260507112012 23 287 11.3 12.9 0.00 0.00 0.00 37 1018.7
20260507111512 23 234 11.3 17.7 0.00 0.00 0.00 42 1018.6
20260507111012 23 248 12.9 17.7 0.00 0.00 0.00 43 1018.4
20260507110512 23 277 12.9 17.7 0.00 0.00 0.00 45 1018.4
20260507110012 23 234 11.3 14.5 0.00 0.00 0.00 46 1018.3
20260507105513 23 253 12.9 16.1 0.00 0.00 0.00 43 1018.4
20260507105012 23 259 12.9 16.1 0.00 0.00 0.00 42 1018.5
20260507104512 24 223 12.9 16.1 0.00 0.00 0.00 39 1018.4
20260507103512 23 276 11.3 14.5 0.00 0.00 0.00 38 1018.1
20260507103012 23 269 9.7 17.7 0.00 0.00 0.00 41 1018.0
20260507102521 23 225 11.3 17.7 0.00 0.00 0.00 42 1018.0
20260507101512 23 229 11.3 12.9 0.00 0.00 0.00 42 1018.1
20260507101012 23 250 9.7 12.9 0.00 0.00 0.00 41 1018.1
20260507100512 23 268 8.0 9.7 0.00 0.00 0.00 40 1018.1
20260507100012 23 254 8.0 9.7 0.00 0.00 0.00 42 1018.2
20260507095512 23 239 8.0 9.7 0.00 0.00 0.00 42 1018.2
20260507094512 23 243 8.0 12.9 0.00 0.00 0.00 42 1018.1
20260507094012 23 260 9.7 12.9 0.00 0.00 0.00 42 1018.1
20260507093013 23 250 8.0 11.3 0.00 0.00 0.00 41 1018.1
20260507091513 23 227 8.0 12.9 0.00 0.00 0.00 41 1018.1
20260507091011 23 242 8.0 11.3 0.00 0.00 0.00 41 1017.9
20260507090512 23 235 8.0 11.3 0.00 0.00 0.00 42 1018.0
20260507090012 23 209 6.4 8.0 0.00 0.00 0.00 42 1017.8
20260507085512 22 209 6.4 8.0 0.00 0.00 0.00 41 1018.0
20260507083012 22 107 4.8 6.4 0.00 0.00 0.00 40 1018.2
20260507082512 22 177 4.8 6.4 0.00 0.00 0.00 43 1018.1
20260507082011 22 198 6.4 8.0 0.00 0.00 0.00 43 1018.1
20260507081513 22 191 8.0 9.7 0.00 0.00 0.00 43 1018.1
20260507081011 22 196 6.4 9.7 0.00 0.00 0.00 43 1018.1
20260507080512 22 202 6.4 11.3 0.00 0.00 0.00 41 1018.0
20260507080012 22 212 6.4 11.3 0.00 0.00 0.00 39 1018.2
20260507075012 21 150 6.4 8.0 0.00 0.00 0.00 40 1018.0
20260507074511 21 133 8.0 9.7 0.00 0.00 0.00 41 1018.0
20260507074012 21 131 9.7 12.9 0.00 0.00 0.00 42 1017.8
20260507073012 21 161 9.7 12.9 0.00 0.00 0.00 42 1017.8
20260507072512 21 185 8.0 12.9 0.00 0.00 0.00 44 1017.7
20260507072011 21 195 6.4 9.7 0.00 0.00 0.00 48 1017.8
20260507071012 21 159 8.0 11.3 0.00 0.00 0.00 49 1017.9
20260507070511 20 159 9.7 11.3 0.00 0.00 0.00 49 1017.9
20260507070014 20 134 11.3 12.9 0.00 0.00 0.00 49 1018.1
20260507065511 20 127 12.9 12.9 0.00 0.00 0.00 49 1018.0
20260507065012 20 125 12.9 16.1 0.00 0.00 0.00 48 1018.0
20260507064512 20 121 12.9 16.1 0.00 0.00 0.00 47 1018.0
20260507064012 20 142 12.9 17.7 0.00 0.00 0.00 47 1017.9
20260507063511 20 160 14.5 17.7 0.00 0.00 0.00 46 1017.9
20260507063012 20 160 14.5 17.7 0.00 0.00 0.00 44 1017.8
20260507062512 20 158 12.9 17.7 0.00 0.00 0.00 43 1017.9
20260507062012 20 154 9.7 12.9 0.00 0.00 0.00 44 1017.7
20260507061011 20 157 8.0 11.3 0.00 0.00 0.00 45 1017.8
20260507060012 20 131 6.4 8.0 0.00 0.00 0.00 44 1017.6
20260507055511 20 102 6.4 6.4 0.00 0.00 0.00 43 1017.3
20260507055011 19 102 6.4 6.4 0.00 0.00 0.00 44 1017.4
20260507054513 20 99 4.8 6.4 0.00 0.00 0.00 44 1017.2
20260507054011 19 98 4.8 6.4 0.00 0.00 0.00 43 1017.2
20260507053514 19 121 4.8 4.8 0.00 0.00 0.00 45 1017.1
20260507053013 19 125 4.8 4.8 0.00 0.00 0.00 45 1017.1
20260507052514 19 127 3.2 4.8 0.00 0.00 0.00 49 1016.9
20260507052011 18 63 1.6 3.2 0.00 0.00 0.00 47 1017.1
20260507050512 18 352 3.2 4.8 0.00 0.00 0.00 54 1017.0
20260507050012 18 346 3.2 4.8 0.00 0.00 0.00 54 1017.0
20260507045512 18 354 0.0 3.2 0.00 0.00 0.00 49 1017.0
20260507044012 17 3 1.6 3.2 0.00 0.00 0.00 54 1017.0
20260507043512 17 2 1.6 3.2 0.00 0.00 0.00 56 1016.9
20260507043012 17 1 3.2 3.2 0.00 0.00 0.00 57 1016.9
20260507042512 16 348 3.2 3.2 0.00 0.00 0.00 56 1016.8
20260507042011 16 338 3.2 3.2 0.00 0.00 0.00 56 1016.8
20260507041512 16 333 3.2 3.2 0.00 0.00 0.00 58 1017.0
20260507041011 16 323 3.2 3.2 0.00 0.00 0.00 59 1017.2
20260507040511 16 324 1.6 3.2 0.00 0.00 0.00 62 1017.0
20260507035512 15 1 3.2 4.8 0.00 0.00 0.00 62 1016.9
20260507035011 15 357 3.2 4.8 0.00 0.00 0.00 62 1016.9
20260507034512 15 349 3.2 3.2 0.00 0.00 0.00 63 1017.1
20260507034012 15 344 3.2 4.8 0.00 0.00 0.00 63 1017.0
20260507033511 15 351 3.2 4.8 0.00 0.00 0.00 62 1017.0
20260507032511 15 1 0.0 3.2 0.00 0.00 0.00 62 1016.7
20260507032011 15 0 0.0 0.0 0.00 0.00 0.00 61 1016.7
20260507031512 15 0 0.0 0.0 0.00 0.00 0.00 61 1016.8
20260507031011 15 45 0.0 3.2 0.00 0.00 0.00 61 1016.8
20260507030512 15 43 1.6 3.2 0.00 0.00 0.00 62 1016.8
20260507030011 15 77 1.6 3.2 0.00 0.00 0.00 62 1016.8
20260507025511 15 81 3.2 3.2 0.00 0.00 0.00 62 1016.7
20260507025012 15 78 3.2 3.2 0.00 0.00 0.00 62 1016.8
20260507024511 15 80 1.6 3.2 0.00 0.00 0.00 62 1016.6
20260507024012 15 75 3.2 3.2 0.00 0.00 0.00 62 1016.7
20260507023511 15 80 4.8 4.8 0.00 0.00 0.00 62 1016.7
20260507023011 15 88 4.8 4.8 0.00 0.00 0.00 62 1016.7
20260507022511 15 107 4.8 6.4 0.00 0.00 0.00 62 1016.6
20260507022011 15 122 4.8 6.4 0.00 0.00 0.00 62 1016.7
20260507021513 15 119 4.8 6.4 0.00 0.00 0.00 62 1016.6
20260507021011 15 120 4.8 6.4 0.00 0.00 0.00 62 1016.7
20260507020512 15 145 4.8 6.4 0.00 0.00 0.00 61 1016.6
20260507020012 15 160 3.2 4.8 0.00 0.00 0.00 62 1016.5
20260507015011 16 160 3.2 4.8 0.00 0.00 0.00 60 1016.5
20260507014511 16 175 1.6 3.2 0.00 0.00 0.00 56 1016.4
20260507014012 16 255 1.6 3.2 0.00 0.00 0.00 55 1016.4
20260507013511 16 256 1.6 3.2 0.00 0.00 0.00 55 1016.3
20260507013011 16 246 0.0 3.2 0.00 0.00 0.00 55 1016.2
20260507012512 16 0 0.0 0.0 0.00 0.00 0.00 55 1016.1
20260507012011 16 0 0.0 0.0 0.00 0.00 0.00 55 1016.0
20260507011512 16 0 0.0 0.0 0.00 0.00 0.00 56 1015.9
20260507011011 16 135 0.0 1.6 0.00 0.00 0.00 56 1015.7
20260507010511 16 74 1.6 3.2 0.00 0.00 0.00 56 1015.9
20260507010012 16 42 1.6 4.8 0.00 0.00 0.00 56 1015.8
20260507005511 16 86 3.2 4.8 0.00 0.00 0.00 57 1015.8
20260507005011 16 132 1.6 4.8 0.00 0.00 0.00 57 1016.0
20260507004511 16 0 0.0 0.0 0.00 0.00 0.00 57 1015.9
20260507004012 16 0 0.0 0.0 0.00 0.00 0.00 56 1015.9
20260507003511 16 0 0.0 0.0 0.00 0.00 0.00 56 1015.9
20260507003011 16 0 0.0 0.0 0.00 0.00 0.00 56 1015.8
20260507002511 16 0 0.0 0.0 0.00 0.00 0.00 56 1015.8
20260507002011 16 0 0.0 0.0 0.00 0.00 0.00 56 1015.9
20260507001011 16 0 0.0 0.0 0.00 0.00 0.00 56 1016.0
20260507000512 16 56 0.0 3.2 0.00 0.00 0.00 56 1016.2
20260507000012 16 58 1.6 3.2 0.00 0.00 0.00 56 1016.1
20260506235511 16 44 1.6 3.2 0.00 0.00 0.00 56 1016.2
20260506235011 16 34 1.6 3.2 0.00 0.00 0.00 55 1016.2
20260506234511 16 30 1.6 3.2 0.00 0.00 0.00 55 1016.3
20260506234011 16 18 1.6 3.2 0.00 0.00 0.00 55 1016.4
20260506233511 16 7 1.6 3.2 0.00 0.00 0.00 55 1016.5
20260506233012 16 325 1.6 3.2 0.00 0.00 0.00 55 1016.5
20260506232011 16 0 0.0 0.0 0.00 0.00 0.00 55 1016.6
20260506231511 17 0 0.0 0.0 0.00 0.00 0.00 54 1016.7
20260506231011 17 270 0.0 3.2 0.00 0.00 0.00 54 1016.6
20260506230512 17 245 1.6 3.2 0.00 0.00 0.00 53 1016.6
20260506230011 17 260 1.6 3.2 0.00 0.00 0.00 53 1016.6
20260506225511 17 270 1.6 3.2 0.00 0.00 0.00 53 1016.6
20260506225011 17 270 0.0 3.2 0.00 0.00 0.00 53 1016.7
20260506224511 17 270 0.0 1.6 0.00 0.00 0.00 53 1016.6
20260506224012 17 0 0.0 0.0 0.00 0.00 0.00 53 1016.7
20260506223012 17 351 1.6 3.2 0.00 0.00 0.00 53 1016.7
20260506222511 17 355 3.2 3.2 0.00 0.00 0.00 53 1016.8
20260506222011 17 348 3.2 3.2 0.00 0.00 0.00 53 1016.8
20260506221511 17 333 1.6 3.2 0.00 0.00 0.00 49 1016.8
20260506220511 17 108 1.6 3.2 0.00 0.00 0.00 47 1016.9
20260506220013 17 90 0.0 1.6 0.00 0.00 0.00 47 1016.9
20260506215511 17 0 0.0 0.0 0.00 0.00 0.00 47 1016.9
20260506215011 17 0 0.0 0.0 0.00 0.00 0.00 46 1016.9
20260506214011 17 0 0.0 0.0 0.00 0.00 0.00 46 1016.9
20260506213511 17 0 0.0 0.0 0.00 0.00 0.00 46 1017.1
20260506212511 18 0 0.0 0.0 0.00 0.00 0.00 44 1017.3
20260506212011 18 0 0.0 0.0 0.00 0.00 0.00 44 1017.1
20260506211511 18 189 0.0 1.6 0.00 0.00 0.00 44 1017.1
20260506210016 18 232 1.6 3.2 0.00 0.00 0.00 43 1017.4
20260506205511 18 229 3.2 3.2 0.00 0.00 0.00 43 1017.4
20260506205011 18 246 3.2 4.8 0.00 0.00 0.00 43 1017.4
20260506204011 18 243 4.8 4.8 0.00 0.00 0.00 42 1017.3
20260506203511 18 244 4.8 4.8 0.00 0.00 0.00 42 1017.4
20260506203011 18 258 4.8 4.8 0.00 0.00 0.00 42 1017.4
20260506202511 18 268 4.8 4.8 0.00 0.00 0.00 42 1017.4
20260506202013 18 262 3.2 4.8 0.00 0.00 0.00 42 1017.3
20260506200511 18 311 0.0 3.2 0.00 0.00 0.00 43 1017.2
20260506200011 18 307 1.6 3.2 0.00 0.00 0.00 43 1017.2
20260506195512 18 288 1.6 3.2 0.00 0.00 0.00 43 1017.1
20260506195011 18 324 3.2 3.2 0.00 0.00 0.00 43 1017.2